Temperature
2 3 2 2 2 1 1 2 2 3 3 5 5 4 5 6 6 6 6 6 5 5 5 4 4 3 3 3 3 2 2 2 2 1 1 1 1 1 1 1 1 1 1 1
2 2 2 2 2 2 2 2 2 3 3 4 5 5 5 5 5 5 6 5 5 5 4 4 3 3 3 2 2 2 2 1 1 1 1 1 1 1 1 1 1 1 0 0
1 2 2 2 2 2 2 1 2 3 4 4 3 3 4 5 5 5 5 5 5 4 4 3 3 2 2 2 2 1 1 1 1 1 1 1 1 1 1 1 0 0 -0 -0
1 1 2 3 3 3 3 2 2 2 3 3 3 4 5 5 5 5 5 4 4 4 3 3 2 2 2 1 1 1 0 0 0 0 0 0 0 0 0 0 -0 -0 -0 -1
0 0 1 2 3 2 2 2 2 2 3 3 4 3 4 5 5 5 4 4 4 3 3 2 2 1 1 1 1 0 0 -0 -0 -0 -0 -0 -0 -0 -0 -0 -1 -1 -1 -1
-0 1 1 3 3 3 3 2 2 2 2 2 2 1 2 5 4 4 4 3 3 3 2 2 1 1 0 0 0 -0 -0 -1 -1 -1 -1 -1 -1 -1 -1 -1 -1 -1 -1 -1
-0 0 1 2 2 3 3 3 3 3 3 3 1 2 4 4 4 3 3 3 2 2 1 1 1 0 -0 -0 -0 -1 -1 -1 -1 -1 -1 -1 -1 -1 -1 -1 -1 -1 -1 -1
-1 0 1 2 1 2 2 3 4 4 4 3 3 4 3 3 3 3 2 2 1 1 1 1 0 -0 -1 -1 -1 -1 -1 -1 -1 -1 -1 -2 -2 -1 -1 -2 -2 -2 -2 -2
0 1 2 2 2 3 3 3 3 3 3 3 3 3 3 2 2 2 1 1 1 0 0 0 -0 -1 -1 -1 -2 -2 -2 -2 -2 -2 -2 -2 -2 -2 -2 -2 -2 -2 -2 -2
-1 -0 1 2 3 3 3 3 3 3 3 3 2 2 2 1 1 1 1 0 0 -0 -0 -0 -1 -1 -2 -2 -2 -2 -2 -2 -2 -2 -2 -2 -2 -2 -2 -3 -3 -3 -3 -3
-1 -1 -0 1 2 3 2 2 2 2 2 2 2 1 1 1 0 0 0 -0 -1 -1 -1 -1 -1 -2 -2 -3 -3 -3 -3 -3 -3 -3 -3 -3 -2 -2 -3 -3 -3 -3 -3 -3
-0 -0 -0 1 2 2 2 2 2 1 1 1 1 0 0 -0 -0 -1 -1 -1 -1 -1 -2 -2 -2 -2 -3 -3 -3 -4 -4 -3 -3 -3 -3 -3 -3 -3 -3 -3 -3 -3 -3 -3
1 2 1 2 2 1 1 1 1 1 0 0 -0 -0 -1 -1 -1 -1 -1 -2 -2 -2 -3 -3 -3 -3 -3 -3 -4 -4 -4 -4 -4 -4 -4 -4 -4 -4 -3 -3 -3 -3 -3 -3
1 1 0 0 0 0 0 0 0 -0 -0 -1 -1 -1 -1 -2 -2 -2 -2 -2 -3 -3 -3 -3 -3 -4 -4 -4 -4 -4 -4 -4 -4 -4 -4 -4 -4 -4 -4 -4 -4 -3 -3 -3
-0 -0 -0 -0 -0 -0 -0 -1 -1 -1 -1 -1 -2 -2 -2 -3 -3 -3 -3 -3 -3 -3 -4 -4 -4 -4 -4 -4 -4 -4 -4 -4 -4 -4 -4 -4 -4 -4 -4 -4 -4 -4 -3 -3
-2 -1 -1 -1 -2 -1 -1 -2 -2 -2 -2 -2 -3 -3 -3 -3 -3 -4 -4 -4 -4 -4 -4 -5 -5 -5 -5 -5 -5 -5 -5 -5 -5 -5 -4 -4 -4 -4 -5 -5 -4 -4 -4 -4
-3 -3 -3 -3 -3 -3 -3 -3 -3 -3 -3 -3 -4 -4 -4 -4 -4 -4 -4 -4 -5 -5 -5 -5 -5 -5 -5 -5 -5 -5 -5 -5 -5 -5 -5 -5 -5 -5 -5 -5 -4 -4 -4 -4
-3 -3 -3 -3 -4 -4 -4 -4 -4 -4 -4 -4 -4 -4 -5 -5 -5 -5 -5 -5 -5 -5 -5 -5 -6 -6 -6 -5 -6 -5 -5 -5 -5 -5 -5 -5 -5 -5 -5 -5 -4 -4 -4 -4
-4 -4 -4 -4 -4 -4 -4 -5 -5 -5 -5 -5 -5 -5 -5 -5 -5 -6 -6 -6 -6 -6 -6 -6 -6 -6 -6 -6 -6 -6 -6 -6 -5 -5 -5 -5 -5 -5 -5 -5 -4 -4 -4 -4
-5 -5 -5 -5 -5 -5 -5 -5 -5 -5 -5 -5 -6 -6 -6 -6 -6 -6 -6 -6 -6 -7 -6 -6 -6 -6 -6 -6 -6 -6 -6 -6 -6 -6 -6 -5 -5 -5 -5 -5 -4 -4 -4 -4
-6 -6 -6 -6 -6 -6 -6 -6 -6 -6 -6 -6 -6 -6 -6 -6 -7 -7 -7 -7 -7 -7 -7 -7 -7 -7 -7 -7 -7 -6 -6 -6 -6 -6 -6 -6 -5 -5 -5 -5 -5 -4 -4 -4
-6 -6 -6 -6 -6 -6 -6 -6 -6 -6 -7 -7 -7 -7 -7 -7 -7 -7 -7 -7 -7 -7 -7 -7 -7 -7 -7 -7 -7 -7 -7 -6 -6 -6 -6 -6 -6 -5 -5 -5 -5 -4 -4 -4
-7 -7 -7 -7 -7 -7 -7 -7 -7 -7 -7 -7 -7 -7 -8 -8 -8 -8 -8 -8 -8 -8 -8 -8 -7 -7 -7 -7 -7 -7 -7 -7 -6 -6 -6 -6 -6 -6 -5 -5 -5 -4 -4 -4
-7 -7 -7 -7 -7 -7 -7 -7 -8 -8 -8 -8 -8 -8 -8 -8 -8 -8 -8 -8 -8 -8 -8 -8 -8 -7 -7 -7 -7 -7 -7 -7 -7 -7 -6 -6 -6 -6 -5 -5 -5 -4 -4 -4
-8 -8 -8 -8 -8 -8 -8 -8 -8 -8 -8 -8 -8 -8 -9 -9 -9 -9 -9 -9 -9 -8 -8 -8 -8 -8 -8 -7 -7 -7 -7 -7 -7 -7 -6 -6 -6 -6 -5 -5 -5 -5 -4 -4
-8 -8 -8 -8 -8 -9 -9 -9 -9 -9 -9 -9 -9 -9 -9 -9 -9 -9 -9 -9 -9 -9 -8 -8 -8 -8 -8 -8 -8 -8 -7 -7 -7 -7 -7 -6 -6 -6 -5 -5 -5 -5 -4 -4
-8 -9 -9 -9 -9 -9 -9 -9 -9 -9 -9 -9 -9 -9 -9 -9 -9 -9 -9 -9 -9 -9 -9 -9 -8 -8 -8 -8 -8 -8 -7 -7 -7 -7 -7 -6 -6 -6 -5 -5 -5 -5 -5 -4
Wind_Speed
5 2 4 6 7 10 11 11 10 10 11 14 10 8 8 6 5 5 5 5 5 5 5 5 6 7 7 8 8 8 8 9 10 10 10 10 10 10 9 8 9 8 9 10
4 4 5 7 10 13 14 12 13 12 15 12 8 5 6 7 6 6 7 7 6 5 5 6 6 7 8 8 8 8 8 9 10 10 10 9 10 10 9 8 8 8 9 10
4 3 1 9 12 14 9 9 10 15 15 7 6 7 8 8 7 7 7 7 6 6 5 6 7 7 8 8 8 8 9 10 10 9 10 10 10 10 9 8 8 9 9 9
2 2 8 9 5 10 11 11 13 11 9 8 9 9 7 7 7 7 7 6 6 5 5 6 6 7 7 7 7 8 9 10 10 9 10 10 10 10 10 8 8 8 9 9
4 5 8 9 5 6 9 9 10 13 12 10 5 4 6 7 6 7 6 6 5 5 5 5 6 7 7 8 8 8 9 10 10 9 10 10 10 10 9 8 8 8 8 9
4 4 7 7 3 3 4 6 5 7 9 7 2 3 7 4 3 4 4 4 4 4 4 5 6 5 6 8 8 9 10 10 10 9 9 9 9 9 8 7 8 8 8 7
6 6 8 7 3 4 4 7 3 4 6 5 6 8 5 3 2 2 3 3 3 3 4 5 5 5 6 8 9 10 10 10 9 9 8 8 8 7 7 7 7 7 8 8
6 7 9 4 4 6 6 3 2 2 3 5 6 5 4 3 3 2 3 3 3 3 5 5 5 4 7 9 9 9 9 9 9 9 8 8 8 8 7 7 7 7 7 7
9 8 4 4 5 5 3 3 4 3 4 4 4 3 3 3 3 3 4 4 4 4 6 6 5 4 7 9 9 9 9 9 9 9 8 7 7 7 7 6 6 6 6 7
4 7 5 5 5 4 4 5 5 4 4 3 3 4 3 3 3 4 4 4 4 4 6 7 6 6 6 7 7 8 9 9 9 8 9 8 6 6 5 6 6 7 7 7
6 6 4 5 6 6 5 4 3 2 3 3 3 3 4 4 4 4 4 4 4 4 6 7 7 7 7 7 7 8 9 9 9 8 8 7 7 6 6 6 7 7 6 6
8 7 6 6 5 4 4 4 4 3 3 2 2 3 3 4 4 4 4 4 4 5 6 6 6 7 7 7 7 7 8 9 7 7 6 6 7 8 9 9 11 11 10 9
6 4 5 5 4 3 4 4 3 3 3 2 2 2 3 3 3 3 4 4 5 6 6 6 6 7 7 7 7 7 8 8 7 6 6 6 6 6 8 9 11 10 10 10
4 2 3 3 3 3 2 2 1 1 1 1 2 2 1 2 3 3 4 5 5 5 5 5 6 7 7 7 8 8 7 8 8 6 6 6 6 6 6 6 8 7 8 10
4 3 4 3 1 1 1 0 0 1 1 1 1 1 1 2 3 4 4 5 4 4 5 5 6 7 8 8 8 8 7 6 6 6 5 5 5 5 5 6 5 6 6 7
3 2 0 1 1 1 1 1 1 2 1 1 2 2 2 2 3 3 4 3 4 5 5 6 6 8 8 7 8 7 6 10 9 6 5 5 5 5 5 5 5 5 5 5
1 2 1 1 2 2 2 2 2 2 1 2 3 2 2 2 2 4 4 4 4 4 5 5 7 8 7 7 7 6 6 8 10 7 5 5 5 5 4 4 4 5 4 5
1 2 2 2 2 1 1 1 1 1 2 2 2 1 1 2 3 4 5 5 5 5 5 6 7 7 7 7 6 5 6 6 6 6 5 5 5 4 4 4 4 4 4 5
3 2 1 1 0 0 0 1 1 2 2 1 1 1 2 2 2 3 4 4 5 6 7 7 10 8 7 9 9 5 6 6 6 6 5 6 6 4 4 4 4 4 3 3
3 3 3 3 3 1 1 1 1 2 2 1 1 1 2 3 3 4 4 4 4 5 7 8 7 7 7 8 9 5 6 6 6 6 5 4 4 4 4 4 4 4 3 3
3 3 3 3 3 3 3 2 1 2 2 2 1 1 2 3 3 3 3 4 6 6 7 9 6 6 6 7 8 5 5 5 5 5 5 4 4 4 4 4 4 3 3 3
2 2 3 2 3 3 3 3 2 2 3 3 2 2 2 3 4 4 3 3 5 9 7 5 5 8 10 9 5 5 5 5 5 4 4 4 4 4 4 5 4 3 3 3
2 2 2 2 2 2 3 3 3 2 2 2 2 3 3 3 3 3 5 5 5 8 7 5 9 12 12 7 5 5 5 5 4 4 4 4 4 4 4 5 4 3 2 2
2 2 2 2 2 3 3 4 3 3 2 3 3 3 3 3 4 3 3 7 10 10 6 8 12 13 11 5 5 5 5 5 4 4 4 4 4 4 4 4 3 3 2 2
2 2 2 2 2 2 2 2 3 3 3 3 4 4 3 2 3 4 5 6 9 9 6 9 12 12 8 5 5 5 5 4 5 4 4 4 4 4 4 4 3 3 2 2
2 2 1 1 1 1 1 2 2 3 3 3 4 4 4 3 4 4 4 5 6 8 6 5 7 8 6 5 5 5 5 5 5 5 4 4 4 4 4 4 4 3 2 2
2 2 2 2 2 2 2 2 2 3 3 3 4 4 4 4 4 4 5 5 5 5 5 5 5 5 5 5 5 5 5 4 4 4 4 4 4 4 4 4 3 3 2 2
Wind_Direction
243 207 178 207 212 200 207 208 214 237 240 254 254 253 256 257 257 262 267 271 268 271 279 287 294 296 295 296 296 297 297 296 293 292 291 289 286 287 285 279 276 273 274 276
260 232 225 249 234 217 223 227 235 253 263 261 260 254 256 254 246 251 259 259 262 267 275 284 289 293 297 298 300 302 298 297 299 299 298 295 294 293 289 284 280 278 276 278
239 241 282 257 228 211 213 212 205 232 247 257 257 255 248 247 243 245 252 255 259 266 267 275 283 288 292 295 302 305 302 302 304 304 301 298 299 299 295 286 283 282 280 279
194 161 232 244 219 199 213 229 215 228 245 244 244 254 249 236 233 245 253 256 258 262 271 280 285 291 295 300 304 304 305 307 306 304 303 303 302 299 299 294 285 282 283 282
180 220 268 284 245 185 197 247 225 229 246 255 263 301 281 251 230 236 242 248 254 259 266 279 284 290 298 304 305 305 307 307 307 305 304 305 303 300 301 300 294 288 284 283
184 205 238 252 242 183 139 265 245 211 234 248 207 264 270 269 248 255 258 261 263 271 283 287 293 300 304 304 307 307 305 304 304 305 304 303 301 300 300 300 294 294 294 290
210 226 257 254 233 126 174 241 241 202 223 221 212 226 245 253 257 250 266 273 275 278 287 289 298 308 305 305 304 304 306 308 309 310 306 304 303 303 305 305 303 302 300 298
187 214 247 221 139 184 220 256 247 228 223 223 230 242 247 249 256 265 283 292 292 291 295 299 303 307 305 303 304 308 310 312 313 313 312 312 309 309 311 310 308 306 304 305
195 215 244 185 205 234 226 236 247 240 246 228 229 243 247 251 259 271 278 287 292 289 298 306 308 304 301 305 312 316 318 316 314 315 314 310 307 310 315 315 311 308 308 308
235 256 252 248 249 249 230 232 243 237 233 216 226 239 249 261 269 278 286 286 291 298 302 306 310 308 299 306 314 318 316 315 314 315 316 317 314 312 314 316 314 311 309 309
238 261 280 263 241 245 253 251 250 253 234 216 215 237 241 255 266 274 284 287 286 287 292 298 308 310 312 315 319 318 315 313 313 313 312 315 315 310 307 302 303 306 306 307
228 224 215 243 246 243 240 245 240 240 259 252 220 240 253 260 266 269 278 287 294 295 299 303 310 312 316 320 321 318 316 315 314 314 315 315 316 317 316 314 318 319 318 315
233 239 225 247 259 249 238 247 243 221 218 243 262 243 250 262 273 281 290 292 291 293 297 303 309 312 317 320 319 314 310 311 312 314 314 316 320 322 324 328 328 332 334 335
254 246 250 255 257 258 236 242 231 221 222 225 252 262 263 275 290 295 293 292 293 298 305 308 310 312 317 320 319 316 313 313 315 310 311 314 316 316 317 322 329 335 342 345
289 258 240 255 284 314 325 52 34 312 303 312 296 278 278 282 289 293 296 302 308 313 317 318 317 317 321 321 320 317 316 314 312 308 307 309 311 313 316 321 326 330 336 343
306 324 283 193 266 317 346 319 254 267 285 300 308 300 288 281 291 303 309 313 314 313 314 315 313 313 317 319 319 317 316 318 321 314 312 313 315 316 320 326 329 330 333 336
312 307 306 296 299 304 295 272 241 250 276 291 296 306 323 333 330 326 324 323 311 303 306 308 309 314 318 319 315 313 315 317 321 319 314 315 316 316 318 324 325 327 331 335
254 247 241 231 244 268 311 334 333 298 288 291 309 335 337 323 311 312 319 324 326 326 322 316 316 321 321 320 317 312 313 312 314 314 313 317 316 314 317 321 323 324 331 336
19 26 29 39 57 153 271 315 320 317 316 319 329 317 310 309 309 311 317 325 326 321 319 319 326 329 322 321 324 316 317 317 318 319 317 320 325 326 326 326 329 331 332 339
32 33 38 35 29 33 20 341 343 342 339 348 10 5 350 334 328 324 323 318 307 298 302 315 324 322 319 319 325 322 322 321 320 322 323 326 328 329 331 331 332 335 339 349
30 32 38 36 28 27 22 13 28 18 1 10 22 347 327 325 329 327 327 322 316 316 318 325 330 321 318 323 326 326 325 324 324 324 326 329 331 331 331 331 334 341 350 358
18 30 29 33 38 24 12 17 33 32 20 16 12 3 351 342 340 334 315 296 306 324 330 321 319 324 331 330 327 327 325 324 324 328 329 329 331 331 331 330 334 340 353 3
22 27 28 29 30 16 10 14 14 18 12 1 352 346 339 326 323 323 322 321 320 328 331 319 326 332 336 339 334 328 327 327 328 327 325 324 325 326 325 326 332 340 351 359
25 26 22 19 31 35 17 0 358 359 351 343 340 333 327 328 330 320 301 320 333 333 331 328 336 339 342 343 333 330 330 332 330 327 326 326 326 325 322 323 328 337 344 348
25 19 17 21 29 18 357 353 359 1 1 355 346 341 332 313 305 315 320 323 330 335 330 332 338 340 343 335 334 332 331 328 327 329 330 329 329 328 323 320 323 326 331 338
16 9 1 360 339 329 339 349 353 349 351 348 344 341 338 331 320 317 320 322 324 330 331 327 329 333 335 332 330 327 325 325 328 332 330 327 326 327 327 330 331 330 328 332
14 11 11 7 3 358 354 352 348 337 335 331 324 326 329 328 327 326 324 325 326 326 324 325 327 328 328 328 327 325 326 328 330 330 328 324 323 322 323 325 328 329 330 335
Height
1455 1455 1458 1458 1459 1462 1463 1462 1463 1454 1451 1439 1438 1437 1436 1435 1435 1435 1434 1433 1432 1431 1429 1427 1425 1423 1420 1416 1413 1409 1404 1399 1394 1389 1385 1380 1376 1372 1368 1364 1362 1359 1356 1353
1455 1453 1455 1454 1452 1454 1454 1453 1452 1449 1443 1433 1434 1434 1433 1432 1432 1431 1430 1430 1429 1427 1426 1424 1421 1419 1415 1411 1407 1403 1399 1393 1389 1384 1379 1374 1370 1366 1362 1359 1356 1353 1350 1347
1456 1453 1453 1452 1441 1443 1445 1443 1443 1442 1434 1430 1431 1430 1429 1428 1428 1427 1427 1426 1424 1423 1421 1420 1417 1415 1411 1407 1402 1398 1394 1389 1384 1379 1374 1369 1365 1361 1357 1353 1350 1346 1344 1341
1455 1455 1453 1434 1427 1429 1432 1431 1432 1429 1426 1426 1426 1425 1425 1424 1424 1423 1423 1421 1420 1419 1417 1415 1413 1410 1407 1402 1398 1393 1389 1384 1379 1374 1369 1365 1361 1356 1352 1348 1344 1341 1338 1335
1453 1453 1445 1431 1425 1426 1429 1427 1424 1424 1422 1422 1422 1423 1421 1420 1420 1419 1419 1418 1417 1415 1414 1411 1409 1405 1401 1397 1393 1388 1384 1379 1375 1370 1365 1361 1356 1352 1348 1343 1339 1336 1333 1330
1449 1447 1442 1426 1420 1419 1424 1426 1418 1418 1419 1419 1421 1425 1420 1417 1416 1416 1415 1414 1413 1411 1409 1407 1404 1401 1397 1392 1388 1384 1379 1375 1371 1366 1362 1357 1352 1348 1344 1340 1336 1332 1329 1326
1443 1443 1433 1420 1418 1419 1428 1422 1415 1414 1415 1416 1417 1417 1415 1414 1413 1413 1412 1411 1410 1408 1405 1403 1400 1396 1392 1388 1384 1380 1375 1371 1367 1362 1358 1353 1349 1345 1341 1337 1333 1329 1325 1322
1439 1438 1430 1415 1417 1420 1417 1413 1412 1412 1412 1412 1412 1411 1412 1411 1411 1410 1409 1407 1406 1404 1401 1399 1396 1392 1388 1384 1380 1376 1371 1367 1362 1358 1354 1350 1346 1341 1338 1334 1330 1326 1322 1318
1424 1420 1413 1411 1411 1411 1411 1411 1410 1410 1410 1410 1409 1409 1409 1408 1408 1407 1406 1404 1402 1400 1397 1394 1391 1388 1384 1380 1376 1371 1367 1362 1358 1354 1350 1346 1342 1338 1334 1331 1327 1323 1320 1316
1418 1412 1409 1409 1408 1408 1408 1408 1408 1407 1407 1407 1406 1406 1406 1406 1405 1404 1402 1400 1398 1396 1392 1389 1387 1384 1380 1376 1372 1368 1363 1359 1355 1351 1347 1343 1340 1336 1332 1329 1325 1322 1318 1315
1413 1409 1407 1405 1404 1405 1405 1405 1404 1404 1404 1404 1403 1403 1403 1402 1401 1400 1398 1397 1394 1392 1388 1385 1382 1379 1376 1372 1368 1364 1360 1356 1352 1348 1344 1340 1337 1334 1331 1328 1325 1321 1318 1314
1405 1402 1403 1401 1401 1402 1402 1401 1401 1401 1401 1401 1401 1400 1399 1399 1398 1396 1394 1392 1390 1388 1385 1381 1378 1375 1371 1368 1365 1361 1356 1352 1348 1345 1341 1338 1334 1331 1328 1326 1323 1319 1316 1314
1397 1397 1398 1398 1398 1398 1398 1398 1398 1398 1398 1398 1397 1397 1396 1395 1394 1392 1390 1388 1386 1383 1380 1377 1374 1371 1368 1364 1361 1357 1354 1350 1346 1343 1339 1336 1333 1329 1325 1322 1320 1317 1314 1311
1394 1395 1395 1394 1395 1395 1395 1395 1395 1395 1395 1395 1394 1393 1392 1391 1390 1388 1386 1384 1382 1380 1377 1374 1371 1367 1364 1361 1357 1354 1351 1347 1344 1341 1338 1334 1331 1328 1325 1321 1317 1314 1312 1310
1392 1392 1392 1391 1392 1392 1392 1392 1392 1391 1391 1391 1390 1389 1389 1387 1386 1385 1383 1381 1379 1376 1373 1370 1367 1364 1361 1358 1354 1351 1348 1345 1342 1339 1336 1333 1330 1327 1324 1321 1318 1314 1311 1309
1389 1389 1389 1389 1389 1389 1389 1389 1389 1388 1388 1388 1387 1386 1385 1384 1383 1381 1379 1377 1375 1372 1370 1367 1364 1361 1358 1355 1351 1348 1345 1343 1340 1337 1333 1331 1328 1326 1323 1320 1317 1314 1311 1309
1387 1387 1386 1386 1386 1386 1386 1386 1386 1385 1385 1384 1384 1383 1382 1381 1379 1378 1376 1374 1372 1369 1367 1365 1362 1359 1356 1352 1349 1346 1343 1340 1337 1334 1332 1329 1327 1324 1322 1320 1317 1315 1312 1311
1386 1385 1385 1385 1384 1384 1384 1383 1383 1383 1382 1382 1381 1380 1379 1378 1376 1374 1373 1371 1368 1366 1364 1362 1359 1356 1353 1350 1347 1344 1341 1338 1335 1333 1330 1328 1325 1323 1321 1319 1317 1315 1313 1311
1384 1384 1383 1383 1382 1382 1381 1381 1381 1380 1380 1379 1378 1377 1376 1375 1374 1372 1370 1368 1365 1363 1361 1359 1356 1354 1351 1348 1345 1342 1339 1336 1333 1331 1329 1326 1324 1322 1320 1318 1317 1315 1313 1312
1383 1382 1382 1381 1381 1380 1380 1379 1379 1378 1378 1377 1376 1375 1374 1373 1371 1369 1367 1365 1364 1361 1359 1356 1354 1351 1348 1345 1343 1340 1337 1334 1332 1330 1327 1325 1323 1321 1320 1318 1317 1315 1314 1312
1383 1382 1381 1380 1380 1379 1379 1378 1377 1377 1376 1375 1374 1373 1372 1371 1369 1367 1365 1363 1361 1359 1357 1354 1351 1348 1346 1344 1341 1338 1336 1333 1331 1328 1326 1325 1323 1321 1320 1318 1317 1316 1315 1313
1382 1381 1381 1380 1379 1379 1378 1377 1376 1376 1375 1374 1373 1371 1370 1368 1367 1365 1364 1362 1359 1357 1354 1352 1349 1347 1344 1342 1339 1337 1334 1332 1330 1328 1326 1324 1323 1322 1320 1319 1318 1317 1316 1315
1382 1381 1381 1380 1379 1378 1378 1377 1376 1375 1374 1373 1371 1370 1369 1367 1366 1364 1362 1360 1358 1355 1353 1350 1347 1345 1343 1340 1337 1335 1333 1331 1329 1327 1325 1324 1323 1322 1320 1319 1318 1317 1317 1316
1382 1381 1380 1380 1379 1378 1377 1376 1375 1374 1373 1372 1371 1369 1368 1366 1364 1363 1361 1358 1356 1354 1351 1348 1346 1343 1341 1338 1336 1334 1332 1330 1328 1326 1325 1323 1322 1321 1320 1319 1319 1318 1318 1317
1382 1381 1380 1379 1379 1378 1377 1376 1375 1374 1372 1371 1370 1368 1367 1365 1363 1361 1359 1356 1354 1352 1349 1347 1344 1342 1340 1337 1335 1333 1331 1329 1328 1326 1324 1323 1322 1321 1321 1320 1319 1319 1318 1318
1381 1381 1380 1379 1378 1377 1376 1375 1374 1373 1371 1370 1368 1367 1365 1364 1362 1359 1357 1355 1352 1350 1347 1345 1343 1340 1338 1336 1334 1332 1330 1329 1327 1326 1325 1323 1322 1322 1321 1320 1320 1319 1319 1318
1381 1380 1380 1379 1378 1377 1376 1375 1373 1372 1371 1369 1367 1366 1364 1362 1360 1358 1355 1353 1350 1348 1346 1343 1341 1339 1337 1335 1333 1331 1330 1328 1327 1326 1325 1324 1323 1322 1321 1321 1320 1319 1319 1319